This is the latest recevied weather packets stored in our database for station/object SQ9RHX-13. If no packets are shown the sender has not sent any weather packets the latest 10 day(s).
| Time | Temp. | Humidity | Pressure | Rain* | Wind** | Luminosity | Snow |
|---|---|---|---|---|---|---|---|
| 1777383003 | 15° C | 23% | 1028.2 hPa | 0 mm | - | 445 W/m² | - |
| 1777382702 | 15.56° C | 24% | 1028.2 hPa | 0 mm | - | 438 W/m² | - |
| 1777382403 | 15.56° C | 23% | 1028.3 hPa | 0 mm | - | 457 W/m² | - |
| 1777382105 | 15° C | 24% | 1028.1 hPa | 0 mm | - | 429 W/m² | - |
| 1777381803 | 15° C | 23% | 1028.4 hPa | 0 mm | - | 465 W/m² | - |
| 1777381503 | 15° C | 24% | 1028.3 hPa | 0 mm | - | 511 W/m² | - |
| 1777381203 | 15° C | 24% | 1028.3 hPa | 0 mm | - | 522 W/m² | - |
| 1777380905 | 15° C | 26% | 1028.4 hPa | 0 mm | - | 535 W/m² | - |
| 1777380603 | 15° C | 24% | 1028.4 hPa | 0 mm | - | 508 W/m² | - |
| 1777380304 | 15.56° C | 25% | 1028.2 hPa | 0 mm | - | 537 W/m² | - |
| 1777380002 | 15.56° C | 24% | 1028.4 hPa | 0 mm | - | 565 W/m² | - |
| 1777379705 | 14.44° C | 26% | 1028.3 hPa | 0 mm | - | 571 W/m² | - |
| 1777379405 | 14.44° C | 27% | 1028.6 hPa | 0 mm | - | 578 W/m² | - |
| 1777379104 | 15° C | 24% | 1028.5 hPa | 0 mm | - | 579 W/m² | - |
| 1777378804 | 15° C | 25% | 1028.5 hPa | 0 mm | - | 589 W/m² | - |
| 1777378503 | 15° C | 26% | 1028.5 hPa | 0 mm | - | 594 W/m² | - |
| 1777378203 | 15° C | 25% | 1028.6 hPa | 0 mm | - | 605 W/m² | - |
| 1777377904 | 15.56° C | 25% | 1028.6 hPa | 0 mm | - | 612 W/m² | - |
| 1777377602 | 14.44° C | 25% | 1028.6 hPa | 0 mm | - | 618 W/m² | - |
| 1777377304 | 14.44° C | 27% | 1028.5 hPa | 0 mm | - | 625 W/m² | - |
| 1777377003 | 15° C | 26% | 1028.8 hPa | 0 mm | - | 629 W/m² | - |
| 1777376703 | 14.44° C | 26% | 1028.7 hPa | 0 mm | - | 636 W/m² | - |
| 1777376405 | 14.44° C | 25% | 1028.7 hPa | 0 mm | - | 641 W/m² | - |
| 1777376103 | 14.44° C | 26% | 1028.8 hPa | 0 mm | - | 643 W/m² | - |
| 1777375804 | 13.89° C | 28% | 1028.7 hPa | 0 mm | - | 645 W/m² | - |
* Rain latest hour (hover to see other rain measurements)
** Current wind speed in m/s (hover to see current wind gust speed)